Regional Weather Roundup
Issued by NWS

Home | Current Version | Previous Version | Graphics & Text | Print | Product List | Glossary On
Versions: 1 2 3 4 5 6 7 8 9 10 11 12 13 14 15 16 17 18 19 20 21 22 23 24 25 26 27 28 29 30 31 32 33 34 35 36 37 38 39 40 41 42 43 44 45 46 47 48 49 50
059
ASUS43 KDTX 201010
RWRMI
MICHIGAN HOURLY REGIONAL WEATHER ROUNDUP
NATIONAL WEATHER SERVICE DETROIT/PONTIAC MI
600 AM EDT WED SEP 20 2017

NOTE: "FAIR" INDICATES FEW OR NO CLOUDS BELOW 12,000 FEET WITH NO
SIGNIFICANT WEATHER AND/OR OBSTRUCTION TO VISIBILITY.

MIZ047>049-052>055-059>063-066>070-074>076-081>083-201100-
SOUTHEAST LOWER MICHIGAN

CITY           SKY/WX    TMP DP  RH WIND       PRES   REMARKS
ADRIAN         CLOUDY    66  66 100 CALM      29.98R FOG
ALMA           CLOUDY    67  65  96 SW3       29.98R FOG
ANN ARBOR      FOG       67  67 100 S3        29.96R VSB 3/4
BAD AXE        FOG       64  63  96 CALM      29.99R VSB 3/4
CARO           FOG       63  61  95 CALM      29.97R VSB 1/4
DETROIT CITY   FOG       64  64 100 CALM      29.96R VSB 1/4
DETROIT        FOG       66  65  96 CALM      29.96R VSB 1/4
FLINT          CLOUDY    63  63 100 CALM      29.98R FOG
GROSSE ILE     FOG       65  65  98 CALM      29.96R VSB 3/4
HILLSDALE      CLOUDY    66  64  94 CALM      29.98R FOG
HOWELL         CLOUDY    66  65  97 CALM      29.98R FOG

CITY           SKY/WX    TMP DP  RH WIND       PRES   REMARKS
JACKSON        MOCLDY    68  66  93 S3        29.97R FOG
LAMBERTVILLE   CLOUDY    67  65  93 S3        29.96R FOG
LANSING        CLOUDY    67  65  93 SE5       29.97R FOG
LAPEER         FOG       65  64  98 CALM      29.98R VSB 3/4
MASON          CLOUDY    68  66  93 CALM      29.97R FOG
MONROE         FOG       64  62  93 CALM      29.95R VSB<1/4
MT. CLEMENS    FOG       64  64 100 CALM      29.95S VSB 1/2
PONTIAC        FOG       66  66 100 SE5       29.96R VSB 1/2
PORT HOPE        N/A     67  65  93 CALM      29.97R
PORT HURON     FOG       64  63  94 CALM      29.97S VSB<1/4
TRI CITIES     CLOUDY    67  67 100 CALM      29.98R FOG
MIDLAND        CLOUDY    66  66 100 CALM      29.97R FOG
TROY           FOG       67  66  99 CALM      29.98S VSB 1/4
SAGINAW HB     FOG       63  63 100 CALM      29.97R VSB<1/4
$$
MIZ043>046-050>051-056>058-064>065-071>073-077>080-201100-
SOUTHWEST LOWER MICHIGAN

CITY           SKY/WX    TMP DP  RH WIND       PRES   REMARKS
BATTLE CREEK   CLOUDY    67  66  97 CALM      29.97R FOG
BENTON HARBOR  FOG       64  62  93 SE3       29.95R VSB 1/4
BIG RAPIDS     FOG       64  62  96 CALM      29.97S VSB 1/2
COLDWATER      PTCLDY    66  66 100 CALM      29.97R FOG
FREMONT        CLOUDY    65  65 100 CALM      29.97R FOG
HOLLAND        CLOUDY    67  64  90 CALM      29.97R FOG
GRAND RAPIDS   CLOUDY    67  66  97 CALM      29.96R FOG
IONIA          CLOUDY    66  66  98 CALM      29.97R FOG
KALAMAZOO      CLOUDY    67  64  90 W3        29.97R FOG
LUDINGTON      CLOUDY    63  62  97 CALM      29.96S FOG
MARSHALL       CLOUDY    67  66  98 CALM      29.97R FOG
MOUNT PLEASANT CLOUDY    67  65  96 CALM      29.98R FOG
MUSKEGON       CLOUDY    67  64  90 CALM      29.97R
SOUTH HAVEN    CLOUDY    67  65  96 CALM      29.96R FOG
$$
MIZ016>042-201100-
NORTHERN LOWER MICHIGAN

CITY           SKY/WX    TMP DP  RH WIND       PRES   REMARKS
ALPENA         FOG       66  66 100 CALM      30.00R VSB 1/2
BEAVER ISLAND  MOCLDY    62  62 100 SE7       29.98R
BELLAIRE       CLOUDY    60  59  94 CALM      29.98S
CADILLAC       CLOUDY    65  62  90 E6        29.98S FOG
CHARLEVOIX     CLOUDY    62  62 100 CALM      30.02R
FRANKFORT      CLOUDY    60  60 100 CALM      29.97S FOG
GAYLORD        FOG       61  60  97 SE5       30.01R VSB 3/4
GRAYLING       FOG       62  60  96 N3        30.01R VSB 1/2
HARBOR SPRINGS CLOUDY    62  61  95 E6        29.99S
HOUGHTON LAKE  FOG       64  63  96 CALM      29.99S VSB 1/2
MANISTEE       CLOUDY    62  61  96 E3        29.96S FOG
OSCODA         CLOUDY    67  66  97 CALM      29.98S FOG
PELLSTON       CLOUDY    63  62  97 CALM      30.00R
ROGERS CITY    FOG       64  64  98 SE3       30.01R VSB 1/4
TRAVERSE CITY  MOCLDY    64  61  90 CALM      29.97R
$$
MIZ007>008-015-201100-
EASTERN UPPER MICHIGAN

CITY           SKY/WX    TMP DP  RH WIND       PRES   REMARKS
KINROSS        CLOUDY    62  60  93 SE7       30.00R
MACKINAC ISLAN CLOUDY    65  65 100 SE6       29.99S FOG
NEWBERRY       CLOUDY    60  59  97 SE3       29.97S FOG
S. S. MARIE    CLOUDY    62  57  83 CALM      29.99S
MUNISING         N/A     61  61 100 S8        29.93R
$$
MIZ004>006-011>014-085-201100-
CENTRAL UPPER MICHIGAN

CITY           SKY/WX    TMP DP  RH WIND       PRES   REMARKS
MANISTIQUE     PTCLDY    61  55  82 SE8       29.95S HAZE
MENOMINEE      CLOUDY    62  61  96 S7        29.92F
SAWYER-GWINN   CLOUDY    59  59  98 S15       29.91F FOG
$$
MIZ001>003-009>011-084-201100-
WESTERN UPPER MICHIGAN

CITY           SKY/WX    TMP DP  RH WIND       PRES   REMARKS
IRON MOUNTAIN  FOG       58  56  93 SE6       29.89F VSB 1/4
HOUGHTON       CLOUDY    58  54  86 E10       29.83F
COPPER HARBOR    N/A     61  56  83 SW9G21    29.83F
IRONWOOD       CLOUDY    63  57  81 SE22G36   29.70F
$$

ABBREVIATIONS USED IN REMARKS
   TC - TEMPERATURE IN CELSIUS
  WCI - WIND CHILL INDEX
   HX - HEAT INDEX
  VSB - VISIBILITY





USA.gov is the U.S. government's official web portal to all federal, state and local government web resources and services.